Location: Newark
(42.8481°N, 0.4872°E)
Time: 23:18:25
(UTC+00:00)

Vanguard 1 - Pass Details

Date: 01 November 2020
Orbit: 650 x 3833 km, 34.2° (Epoch: 29 November)

Event Time Altitude Azimuth Distance (km) Brightness Sun altitude
Rises 08:18:40 0° 182° (S) 6,154 14.7 16.1°
Reaches altitude 10° 08:24:12 10° 167° (SSE) 5,671 15.0 16.9°
Maximum altitude 08:35:42 20° 127° (SE) 5,653 17.1 18.5°
Drops below altitude 10° 08:49:20 10° 90° (E) 6,926 15.2 20.3°
Sets 08:57:09 0° 77° (ENE) 7,942 15.1 21.3°
